Price, UT

11:46 PM MDT on March 22, 2017 (GMT -0600)
Carbon County

Weather History for KPUC - May, 2013

Change the Weather History Date:

Monday, May 27, 2013

  Actual Average Record
Temperature  
Mean Temperature 66 °F -  
Max Temperature 79 °F 75 °F 93 °F (2003)
Min Temperature 54 °F 46 °F 36 °F (1989)
Growing Degree Days 16 (Base 50)    
Moisture  
Dew Point 18 °F    
Average Humidity 15    
Maximum Humidity 28    
Minimum Humidity 9    
Precipitation  
Precipitation 0.00 in - - ()
Sea Level Pressure  
Sea Level Pressure 29.70 in    
Wind  
Wind Speed 7 mph (WNW)    
Max Wind Speed 18 mph    
Max Gust Speed 26 mph    
Visibility 10 miles    
Events      
Averages and records for this station are not official NWS values.
T = Trace of Precipitation, MM = Missing Value Source: NWS Daily Summary

Daily Weather History Graph

Daily Weather History Graph

Search for Another Location

Airport or City:

Trip Planner

Search our weather history database for the weather conditions in past years. The results will help you decide how hot, cold, wet, or windy it might be!

Date:

Astronomy

May. 27, 2013 Rise Set
Actual Time 5:59 AM MDT 8:41 PM MDT
Civil Twilight 5:28 AM MDT 9:12 PM MDT
Nautical Twilight 4:48 AM MDT 9:52 PM MDT
Astronomical Twilight 4:04 AM MDT 10:36 PM MDT
Moon 11:23 PM MDT (5/27) 8:40 AM MDT (5/27)
Length of Visible Light 15h 44m
Length of Day
14h 41m
Waning Gibbous, 90% of the Moon is Illuminated
May 27
Waning Gibbous
May 31
Last Quarter
Jun 8
New
Jun 16
First Quarter
Jun 23
Full

Hourly Weather History & Observations

Time (MDT) Temp. Dew Point Humidity Pressure Visibility Wind Dir Wind Speed Gust Speed Precip Events Conditions
12:53 AM 64.0 °F 10.9 °F 13% 29.71 in 10.0 mi NW 6.9 mph - N/A   Clear
1:53 AM 61.0 °F 12.0 °F 15% 29.70 in 10.0 mi West 3.5 mph - N/A   Clear
2:53 AM 63.0 °F 14.0 °F 15% 29.69 in 10.0 mi Variable 3.5 mph - N/A   Clear
3:53 AM 63.0 °F 17.1 °F 17% 29.69 in 10.0 mi West 6.9 mph - N/A   Clear
4:53 AM 62.1 °F 18.0 °F 18% 29.71 in 10.0 mi West 9.2 mph - N/A   Clear
5:53 AM 60.1 °F 19.0 °F 20% 29.74 in 10.0 mi WNW 8.1 mph - N/A   Clear
6:53 AM 54.0 °F 21.0 °F 28% 29.79 in 10.0 mi NNE 6.9 mph - N/A   Clear
7:53 AM 64.0 °F 24.1 °F 22% 29.76 in 10.0 mi West 3.5 mph - N/A   Clear
8:53 AM 66.0 °F 24.1 °F 20% 29.76 in 10.0 mi NW 4.6 mph - N/A   Clear
9:53 AM 68.0 °F 21.0 °F 17% 29.76 in 10.0 mi Variable 3.5 mph - N/A   Clear
10:53 AM 71.1 °F 19.0 °F 14% 29.76 in 10.0 mi WSW 5.8 mph - N/A   Clear
11:53 AM 73.9 °F 19.9 °F 13% 29.73 in 10.0 mi SSW 12.7 mph 16.1 mph N/A   Clear
12:53 PM 73.0 °F 18.0 °F 12% 29.73 in 10.0 mi Variable 6.9 mph 18.4 mph N/A   Mostly Cloudy
1:53 PM 75.0 °F 16.0 °F 11% 29.72 in 10.0 mi Variable 4.6 mph - N/A   Partly Cloudy
2:53 PM 77.0 °F 14.0 °F 9% 29.67 in 10.0 mi Variable 6.9 mph - N/A   Partly Cloudy
3:53 PM 75.9 °F 17.1 °F 11% 29.65 in 10.0 mi WNW 13.8 mph 24.2 mph N/A   Partly Cloudy
4:53 PM 77.0 °F 17.1 °F 10% 29.63 in 10.0 mi WNW 18.4 mph 26.5 mph N/A   Clear
5:53 PM 75.9 °F 16.0 °F 10% 29.64 in 10.0 mi WNW 15.0 mph 26.5 mph N/A   Clear
6:53 PM 72.0 °F 19.0 °F 13% 29.68 in 10.0 mi WNW 13.8 mph 25.3 mph N/A   Clear
7:53 PM 70.0 °F 18.0 °F 14% 29.65 in 10.0 mi WNW 10.4 mph 19.6 mph N/A   Clear
8:53 PM 68.0 °F 18.0 °F 15% 29.65 in 10.0 mi WNW 4.6 mph - N/A   Clear
9:53 PM 66.9 °F 14.0 °F 13% 29.64 in 10.0 mi WNW 5.8 mph - N/A   Partly Cloudy
10:53 PM 66.0 °F 18.0 °F 16% 29.63 in 10.0 mi East 6.9 mph - N/A   Scattered Clouds
11:53 PM 64.0 °F 19.0 °F 18% 29.62 in 10.0 mi NE 4.6 mph - N/A   Overcast